Weather History for KLVK - June, 2013

Change the Weather History Date:

Tuesday, June 4, 2013

  Actual Average Record
Temperature  
Mean Temperature 65 °F 65 °F  
Max Temperature 76 °F 78 °F 105 °F (1960)
Min Temperature 54 °F 52 °F 39 °F (1962)
Degree Days  
Heating Degree Days 0 2  
Month to date heating degree days 0 8  
Since 1 June heating degree days 0 8  
Since 1 July heating degree days 2390 2756  
Cooling Degree Days 0 2  
Month to date cooling degree days 22 8  
Year to date cooling degree days 123 61  
Since 1 June cooling degree days 22 8  
Growing Degree Days 14 (Base 50)    
Moisture  
Dew Point 51 °F    
Average Humidity 70    
Maximum Humidity 93    
Minimum Humidity 46    
Precipitation  
Precipitation 0.00 in 0.00 in 0.57 in (2011)
Month to date precipitation 0.00 0.02  
Year to date precipitation 2.08 9.88  
Since 1 July precipitation 10.37 15.69  
Sea Level Pressure  
Sea Level Pressure 29.89 in    
Wind  
Wind Speed 14 mph (WNW)    
Max Wind Speed 23 mph    
Max Gust Speed 26 mph    
Visibility 10 miles    
Events      
T = Trace of Precipitation, MM = Missing Value Source: NWS Daily Summary

Daily Weather History Graph

Daily Weather History Graph

Search for Another Location

Airport or City:

Trip Planner

Search our weather history database for the weather conditions in past years. The results will help you decide how hot, cold, wet, or windy it might be!

Date:

Astronomy

Jun. 04, 2013 Rise Set
Actual Time 5:46 AM PDT 8:25 PM PDT
Civil Twilight 5:15 AM PDT 8:56 PM PDT
Nautical Twilight 4:36 AM PDT 9:34 PM PDT
Astronomical Twilight 3:53 AM PDT 10:18 PM PDT
Moon 3:15 AM PDT (6/4) 5:02 PM PDT (6/4)
Length of Visible Light 15h 40m
Length of Day
14h 39m
Waning Crescent, 13% of the Moon is Illuminated
Jun 4
Waning Crescent
Jun 8
New
Jun 16
First Quarter
Jun 23
Full
Jun 29
Last Quarter

Hourly Weather History & Observations

Time (PDT) Temp. Dew Point Humidity Pressure Visibility Wind Dir Wind Speed Gust Speed Precip Events Conditions
12:53 AM 55.0 °F 50.0 °F 83% 29.84 in 10.0 mi WNW 10.4 mph - N/A   Clear
1:53 AM 54.0 °F 50.0 °F 86% 29.84 in 10.0 mi WNW 11.5 mph - N/A   Clear
2:53 AM 54.0 °F 50.0 °F 86% 29.84 in 10.0 mi WNW 8.1 mph - N/A   Clear
3:53 AM 54.0 °F 50.0 °F 86% 29.84 in 10.0 mi WNW 11.5 mph - N/A   Clear
4:53 AM 54.0 °F 50.0 °F 86% 29.85 in 10.0 mi WNW 9.2 mph - N/A   Clear
5:53 AM 54.0 °F 51.1 °F 90% 29.86 in 10.0 mi WNW 9.2 mph - N/A   Clear
6:53 AM 55.0 °F 51.1 °F 86% 29.88 in 10.0 mi WNW 8.1 mph - N/A   Scattered Clouds
7:53 AM 57.9 °F 52.0 °F 81% 29.90 in 10.0 mi West 11.5 mph - N/A   Scattered Clouds
8:53 AM 61.0 °F 52.0 °F 72% 29.90 in 10.0 mi WNW 10.4 mph - N/A   Clear
9:53 AM 63.0 °F 52.0 °F 67% 29.91 in 10.0 mi WNW 16.1 mph - N/A   Clear
10:53 AM 66.9 °F 53.1 °F 61% 29.91 in 10.0 mi WNW 11.5 mph - N/A   Clear
11:53 AM 70.0 °F 53.1 °F 55% 29.91 in 10.0 mi WNW 16.1 mph - N/A   Clear
12:53 PM 72.0 °F 53.1 °F 51% 29.90 in 10.0 mi NW 18.4 mph - N/A   Clear
1:53 PM 75.0 °F 53.1 °F 46% 29.90 in 10.0 mi WNW 18.4 mph - N/A   Clear
2:53 PM 73.9 °F 52.0 °F 46% 29.89 in 10.0 mi WNW 20.7 mph - N/A   Clear
3:53 PM 73.9 °F 51.1 °F 45% 29.89 in 10.0 mi West 19.6 mph - N/A   Clear
4:53 PM 71.1 °F 51.1 °F 49% 29.89 in 10.0 mi West 19.6 mph - N/A   Clear
5:53 PM 69.1 °F 52.0 °F 54% 29.89 in 10.0 mi WNW 16.1 mph - N/A   Clear
6:53 PM 66.0 °F 51.1 °F 59% 29.89 in 10.0 mi WNW 16.1 mph - N/A   Clear
7:53 PM 62.1 °F 51.1 °F 67% 29.90 in 10.0 mi West 18.4 mph - N/A   Clear
8:53 PM 59.0 °F 50.0 °F 72% 29.91 in 10.0 mi West 12.7 mph - N/A   Clear
9:53 PM 57.0 °F 50.0 °F 77% 29.93 in 10.0 mi WNW 13.8 mph - N/A   Clear
10:53 PM 55.9 °F 50.0 °F 80% 29.94 in 10.0 mi WNW 13.8 mph - N/A   Clear
11:53 PM 55.0 °F 50.0 °F 83% 29.95 in 10.0 mi WNW 13.8 mph - N/A   Clear